FW9818 Weather Reports


Display with metric or nautical units.
time (UTC)temp
F
wind
direction
speed
MPH
gust
MPH
rain 1hr
in
rain 24hr
in
rain mn
in
humidity
%
barometer
mb
20260510074611 57 23 4.0 12.0 0.00 0.00 0.00 68 1014.0
20260510073107 56 18 5.0 12.0 0.00 0.00 0.00 69 1014.1
20260510071601 55 18 5.0 11.0 0.00 0.00 0.00 70 1014.2
20260510070019 54 57 3.0 7.0 0.00 0.00 0.00 72 1014.3
20260510064555 53 108 3.0 7.0 0.00 0.00 0.00 75 1014.3
20260510063020 53 5 6.0 11.0 0.00 0.00 0.00 76 1014.5
20260510061549 52 23 3.0 7.0 0.00 0.00 0.00 77 1014.5
20260510060055 52 13 1.0 8.0 0.00 0.00 0.00 78 1014.3
20260510054516 51 31 4.0 11.0 0.00 0.00 0.00 79 1014.2
20260510053007 51 52 3.0 10.0 0.00 0.00 0.00 79 1014.2
20260510051524 51 70 3.0 6.0 0.00 0.00 0.00 79 1014.3
20260510050138 50 13 2.0 6.0 0.00 0.00 0.00 78 1014.4
20260510044628 50 358 1.0 5.0 0.00 0.00 0.00 78 1014.4
20260510043124 50 48 1.0 4.0 0.00 0.00 0.00 79 1014.3
20260510041503 49 77 2.0 5.0 0.00 0.00 0.00 79 1014.2
20260510040035 49 56 1.0 3.0 0.00 0.00 0.00 79 1014.2
20260510034559 49 46 0.0 3.0 0.00 0.00 0.00 79 1014.2
20260510033113 49 35 1.0 3.0 0.00 0.00 0.00 78 1014.2
20260510031609 49 27 1.0 3.0 0.00 0.00 0.00 77 1014.4
20260510030125 49 18 0.0 2.0 0.00 0.00 0.00 76 1014.5
20260510023002 49 18 1.0 3.0 0.00 0.00 0.00 75 1014.4
20260510021509 49 354 0.0 2.0 0.00 0.00 0.00 74 1014.4
20260510020018 50 23 0.0 3.0 0.00 0.00 0.00 73 1014.5
20260510014510 50 33 1.0 4.0 0.00 0.00 0.00 72 1014.6
20260510013011 50 18 0.0 3.0 0.00 0.00 0.00 72 1014.7
20260510011550 51 13 2.0 4.0 0.00 0.00 0.00 71 1014.7
20260510010138 51 43 0.0 4.0 0.00 0.00 0.00 71 1014.7
20260510004506 52 13 1.0 2.0 0.00 0.00 0.00 70 1014.9
20260510003012 52 47 0.0 3.0 0.00 0.00 0.00 69 1014.9
20260510001547 52 13 1.0 2.0 0.00 0.00 0.00 69 1015.0
20260510000019 52 18 1.0 2.0 0.00 0.00 0.00 69 1015.0
20260509234559 53 3 0.0 3.0 0.00 0.00 0.00 69 1015.2
20260509233106 53 23 1.0 4.0 0.00 0.00 0.00 69 1015.1
20260509231605 53 2 1.0 3.0 0.00 0.00 0.00 68 1015.2
20260509230110 53 33 1.0 4.0 0.00 0.00 0.00 67 1015.2
20260509224601 54 5 1.0 3.0 0.00 0.00 0.00 67 1015.2
20260509223120 54 50 0.0 3.0 0.00 0.00 0.00 66 1015.1
20260509221618 55 18 1.0 4.0 0.00 0.00 0.00 65 1015.3
20260509220011 55 23 1.0 3.0 0.00 0.00 0.00 65 1015.3
20260509214626 56 18 0.0 2.0 0.00 0.00 0.00 63 1015.3
20260509213132 57 23 1.0 4.0 0.00 0.00 0.00 62 1015.2
20260509211623 57 52 1.0 4.0 0.00 0.00 0.00 61 1015.2
20260509210123 58 23 2.0 5.0 0.00 0.00 0.00 60 1015.1
20260509204610 58 18 3.0 6.0 0.00 0.00 0.00 59 1015.1
20260509203116 59 23 2.0 7.0 0.00 0.00 0.00 59 1015.2
20260509201606 59 33 3.0 6.0 0.00 0.00 0.00 58 1015.2
20260509200111 60 29 1.0 4.0 0.00 0.00 0.00 58 1015.2
20260509194556 60 48 2.0 4.0 0.00 0.00 0.00 56 1014.8
20260509193111 61 36 1.0 4.0 0.00 0.00 0.00 55 1014.8
20260509191546 62 39 1.0 4.0 0.00 0.00 0.00 53 1014.8
20260509190143 63 39 1.0 4.0 0.00 0.00 0.00 52 1014.7
20260509184503 64 44 0.0 2.0 0.00 0.00 0.00 51 1014.6
20260509183002 65 50 1.0 4.0 0.00 0.00 0.00 49 1014.6
20260509181508 66 71 1.0 5.0 0.00 0.00 0.00 47 1014.7
20260509180122 67 50 0.0 2.0 0.00 0.00 0.00 48 1014.6
20260509174616 67 71 0.0 3.0 0.00 0.00 0.00 48 1014.4
20260509173122 66 53 1.0 3.0 0.00 0.00 0.00 47 1014.4
20260509171629 67 67 1.0 4.0 0.00 0.00 0.00 46 1014.3
20260509170114 68 66 0.0 4.0 0.00 0.00 0.00 44 1014.4
20260509164602 68 81 0.0 4.0 0.00 0.00 0.00 46 1014.5
20260509163107 70 90 2.0 6.0 0.00 0.00 0.00 41 1014.5
20260509161554 72 137 1.0 3.0 0.00 0.00 0.00 40 1014.5
20260509154600 70 114 3.0 7.0 0.00 0.00 0.00 43 1014.6
20260509153058 69 111 0.0 6.0 0.00 0.00 0.00 42 1014.6
20260509151554 69 65 2.0 6.0 0.00 0.00 0.00 44 1014.8
20260509150105 69 60 1.0 5.0 0.00 0.00 0.00 44 1014.8
20260509144711 71 335 0.0 3.0 0.00 0.00 0.00 44 1014.9
20260509143112 72 46 1.0 8.0 0.00 0.00 0.00 38 1015.1
20260509141558 71 79 2.0 9.0 0.00 0.00 0.00 39 1015.2
20260509140148 71 119 3.0 7.0 0.00 0.00 0.00 43 1015.3
20260509134617 70 53 3.0 7.0 0.00 0.00 0.00 43 1015.3
20260509133100 70 143 2.0 8.0 0.00 0.00 0.00 43 1015.5
20260509131553 69 85 2.0 6.0 0.00 0.00 0.00 49 1015.8
20260509130105 69 67 3.0 10.0 0.00 0.00 0.00 46 1015.9
20260509124517 70 162 2.0 7.0 0.00 0.00 0.00 45 1016.1
20260509123012 70 55 3.0 7.0 0.00 0.00 0.00 48 1016.1
20260509121550 69 64 2.0 4.0 0.00 0.00 0.00 46 1016.3
20260509120002 69 59 1.0 8.0 0.00 0.00 0.00 47 1016.4
20260509114627 69 175 3.0 7.0 0.00 0.00 0.00 47 1016.4
20260509113126 70 5 1.0 7.0 0.00 0.00 0.00 44 1016.6
20260509111622 68 71 1.0 9.0 0.00 0.00 0.00 45 1016.7
20260509110113 68 93 4.0 8.0 0.00 0.00 0.00 46 1016.9
20260509104552 67 63 2.0 6.0 0.00 0.00 0.00 44 1017.0
20260509103140 68 92 3.0 6.0 0.00 0.00 0.00 47 1017.1
20260509101616 67 127 1.0 5.0 0.00 0.00 0.00 45 1017.1
20260509100006 68 9 3.0 8.0 0.00 0.00 0.00 47 1017.2
20260509094631 67 110 3.0 9.0 0.00 0.00 0.00 48 1017.2
20260509093129 66 84 2.0 7.0 0.00 0.00 0.00 47 1017.3
20260509091624 66 102 1.0 8.0 0.00 0.00 0.00 49 1017.4
20260509090026 64 139 3.0 8.0 0.00 0.00 0.00 53 1017.4
20260509084601 64 54 3.0 7.0 0.00 0.00 0.00 54 1017.4
20260509083018 63 63 1.0 4.0 0.00 0.00 0.00 56 1017.5
20260509081546 61 85 1.0 4.0 0.00 0.00 0.00 61 1017.7
20260509080137 60 119 0.0 3.0 0.00 0.00 0.00 63 1017.7